User: anonymous   Login
Location: Kunchanapalle
(16.4623°N, 80.6176°E)
Time: 11:48:14
(UTC+00:00)
Language:

ATLAS 5 CENTAUR R/B - Orbit

View from above orbital plane
View from above orbital plane
View from above satellite
View from above satellite

Ground track
Ground track

The orbit data is extracted from the following two-line orbital elements,

1 36869U 10039B   20292.36217206 +.00014364 +00000-0 +62408-3 0  9998
2 36869 020.1272 156.9455 4882454 140.3254 268.2239 05.90846233171536
Epoch (UTC): 18 October 2020 08:41:31
Eccentricity: 0.4882454
inclination: 20.1272°
perigee height: 236 km
apogee height: 12857 km
right ascension of ascending node: 156.9455°
argument of perigee: 140.3254°
revolutions per day: 5.90846233
mean anomaly at epoch: 268.2239°
orbit number at epoch: 17153

The dashed part of the orbit path shows where the satellite is in the earth's shadow,  

DLR